Regional Weather Roundup
Issued by NWS

Home | Current Version | Previous Version | Text Only | Print | Product List | Glossary Off
Versions: 1 2 3 4 5 6 7 8 9 10 11 12 13 14 15 16 17 18 19 20 21 22 23 24 25 26 27 28 29 30 31 32 33 34 35 36 37 38 39 40 41 42 43 44 45 46 47 48 49 50

365
ASUS44 KJAN 241810
RWRMS

MISSISSIPPI HOURLY WEATHER ROUNDUP
NATIONAL WEATHER SERVICE JACKSON MS
1200 PM CST SAT JAN 24 2015

NOTE: "FAIR: INDICATES FEW OR NO CLOUDS BELOW 12,000 FEET WITH NO
SIGNIFICANT WEATHER AND/OR OBSTRUCTIONS TO VISIBILITY.

MSZ001>002-007>008-010>013-018>021-025>028-034>036-241900-
NORTHWEST MISSISSIPPI

CITY           SKY/WX    TMP DP  RH WIND       PRES   REMARKS
CLARKSDALE     FAIR      48  37  66 SW8       30.07F
CLEVELAND      FAIR      49  39  69 SW8       30.08F
GREENWOOD      SUNNY     48  35  60 VRB7      30.09F
6HR MIN TEMP:  28; 6HR MAX TEMP:  48;

GREENVILLE     SUNNY     51  35  54 W7        30.08F
6HR MIN TEMP:  31; 6HR MAX TEMP:  51;

GRENADA        FAIR      46  34  61 CALM      30.08F
OXFORD         FAIR      46  30  53 W8G17     30.05F
TUNICA         CLEAR     50  34  53 S12       30.04F
$$

MSZ003>006-009-014>017-022>024-029>033-037>039-241900-
NORTHEAST MISSISSIPPI

CITY           SKY/WX    TMP DP  RH WIND       PRES   REMARKS
COLUMBUS AFB   SUNNY     46  32  57 W6        30.06F
6HR MIN TEMP:  26; 6HR MAX TEMP:  47;

CORINTH        FAIR      46  34  61 SW8       29.99F
GOLDN TRIANGLE SUNNY     48  34  57 W7        30.06F
STARKVILLE     FAIR      46  32  57 SW8       30.07F
TUPELO         SUNNY     49  31  49 SW8       30.04F
6HR MIN TEMP:  29; 6HR MAX TEMP:  49;

$$

MSZ040-058-241900-
CENTRAL MISSISSIPPI

CITY           SKY/WX    TMP DP  RH WIND       PRES   REMARKS
JACKSON INTL   SUNNY     50  32  50 W8        30.12F
6HR MIN TEMP:  32; 6HR MAX TEMP:  51;

JACKSON HAWKNS SUNNY     49  34  56 VRB7      30.12F
6HR MIN TEMP:  32; 6HR MAX TEMP:  49;

MERIDIAN KEY   SUNNY     49  31  49 NW7G16    30.10F
6HR MIN TEMP:  30; 6HR MAX TEMP:  49;

MERIDIAN NAS   SUNNY     49  28  44 W9        30.09F
6HR MIN TEMP:  31; 6HR MAX TEMP:  49;

RAYMOND        FAIR      50  46  87 W10       30.12F
VICKSBURG      SUNNY     51  36  56 W8        30.14F
6HR MIN TEMP:  30; 6HR MAX TEMP:  51;

$$

MSZ059>079-241900-
SOUTH MISSISSIPPI

CITY           SKY/WX    TMP DP  RH WIND       PRES   REMARKS
BROOKHAVEN     FAIR      50  36  57 NW6       30.16F
HATTIESBURG    SUNNY     48  35  60 N6        30.15F
6HR MIN TEMP:  34; 6HR MAX TEMP:  48;

MCCOMB         SUNNY     51  32  48 NW8       30.15F
6HR MIN TEMP:  36; 6HR MAX TEMP:  51;

NATCHEZ        SUNNY     50  37  62 SW7       30.17F
6HR MIN TEMP:  32; 6HR MAX TEMP:  50;

PINE BELT      SUNNY     46  34  61 W5        30.14F
6HR MIN TEMP:  34; 6HR MAX TEMP:  46;

$$

MSZ080>082-241900-
COASTAL MISSISSIPPI

CITY           SKY/WX    TMP DP  RH WIND       PRES   REMARKS
BAY ST LOUIS   SUNNY     52  30  43 NW8       30.16F
BILOXI         SUNNY     53  36  52 N10       30.13F
6HR MIN TEMP:  37; 6HR MAX TEMP:  53;

PASCAGOULA     SUNNY     52  34  50 W8        30.13F
6HR MIN TEMP:  36; 6HR MAX TEMP:  53;

GULFPORT       SUNNY     52  35  52 NW10      30.14F
6HR MIN TEMP:  36; 6HR MAX TEMP:  52;

$$



USA.gov is the U.S. government's official web portal to all federal, state and local government web resources and services.